Montevideo, MN

9:20 AM CDT on July 28, 2017 (GMT -0500)
Montevideo-Chippewa County

Weather History for KMVE - May, 2013

Change the Weather History Date:

Saturday, May 18, 2013

  Actual Average Record
Temperature  
Mean Temperature 71 °F -  
Max Temperature 82 °F 74 °F 96 °F (1998)
Min Temperature 60 °F 48 °F 32 °F (1968)
Cooling Degree Days 6    
Growing Degree Days 21 (Base 50)    
Moisture  
Dew Point 62 °F    
Average Humidity 76    
Maximum Humidity 100    
Minimum Humidity 51    
Precipitation  
Precipitation 0.00 in - - ()
Sea Level Pressure  
Sea Level Pressure 29.82 in    
Wind  
Wind Speed 11 mph (South)    
Max Wind Speed 20 mph    
Max Gust Speed 23 mph    
Visibility 9 miles    
Events Rain , Thunderstorm    
Averages and records for this station are not official NWS values.
T = Trace of Precipitation, MM = Missing Value Source: NWS Daily Summary

Daily Weather History Graph

Daily Weather History Graph

Search for Another Location

Airport or City:

Trip Planner

Search our weather history database for the weather conditions in past years. The results will help you decide how hot, cold, wet, or windy it might be!

Date:

Astronomy

May. 18, 2013 Rise Set
Actual Time 5:50 AM CDT 8:48 PM CDT
Civil Twilight 5:15 AM CDT 9:23 PM CDT
Nautical Twilight 4:31 AM CDT 10:08 PM CDT
Astronomical Twilight 3:39 AM CDT 11:01 PM CDT
Moon 1:35 PM CDT (5/18) 2:02 AM CDT (5/18)
Length of Visible Light 16h 07m
Length of Day
14h 58m
First Quarter, 55% of the Moon is Illuminated
May 18
First Quarter
May 24
Full
May 31
Last Quarter
Jun 8
New
Jun 16
First Quarter

Hourly Weather History & Observations

Time (CDT) Temp. Heat Index Dew Point Humidity Pressure Visibility Wind Dir Wind Speed Gust Speed Precip Events Conditions
12:14 AM 60.8 °F - 57.2 °F 88% 29.87 in 7.0 mi SSE 17.3 mph - N/A   Overcast
12:34 AM 60.8 °F - 57.2 °F 88% 29.87 in 7.0 mi SSE 17.3 mph - N/A   Overcast
12:54 AM 60.8 °F - 57.2 °F 88% 29.87 in 7.0 mi SSE 19.6 mph 23.0 mph N/A Thunderstorm Overcast
1:14 AM 60.8 °F - 57.2 °F 88% 29.87 in 7.0 mi SSE 17.3 mph - N/A   Overcast
1:34 AM 60.8 °F - 57.2 °F 88% 29.86 in 7.0 mi South 16.1 mph - N/A Thunderstorm Mostly Cloudy
1:54 AM 60.8 °F - 57.2 °F 88% 29.85 in 7.0 mi South 15.0 mph - N/A Thunderstorm Mostly Cloudy
2:14 AM 60.8 °F - 59.0 °F 94% 29.86 in 7.0 mi South 11.5 mph - N/A   Scattered Clouds
2:34 AM 62.6 °F - 60.8 °F 94% 29.85 in 7.0 mi SSW 9.2 mph - N/A   Scattered Clouds
2:54 AM 62.6 °F - 60.8 °F 94% 29.83 in 7.0 mi SSW 13.8 mph - N/A Thunderstorm Clear
3:14 AM 62.6 °F - 60.8 °F 94% 29.83 in 7.0 mi SSW 9.2 mph - N/A Thunderstorm Clear
3:34 AM 62.6 °F - 60.8 °F 94% 29.83 in 7.0 mi South 9.2 mph - N/A   Clear
3:54 AM 62.6 °F - 60.8 °F 94% 29.84 in 7.0 mi South 6.9 mph - N/A   Clear
4:14 AM 62.6 °F - 60.8 °F 94% 29.84 in 5.0 mi SSE 6.9 mph - N/A   Clear
4:34 AM 60.8 °F - 60.8 °F 100% 29.83 in 5.0 mi South 9.2 mph - N/A   Clear
4:54 AM 62.6 °F - 60.8 °F 94% 29.84 in 7.0 mi South 8.1 mph - N/A   Scattered Clouds
5:14 AM 64.4 °F - 60.8 °F 88% 29.85 in 7.0 mi Calm Calm - N/A   Mostly Cloudy
5:34 AM 62.6 °F - 60.8 °F 94% 29.87 in 7.0 mi Calm Calm - N/A   Overcast
5:54 AM 60.8 °F - 60.8 °F 100% 29.86 in 7.0 mi ESE 5.8 mph - N/A   Scattered Clouds
6:14 AM 60.8 °F - 60.8 °F 100% 29.84 in 7.0 mi SE 9.2 mph - N/A   Mostly Cloudy
6:34 AM 62.6 °F - 60.8 °F 94% 29.86 in 7.0 mi SSE 5.8 mph - N/A Thunderstorm Overcast
6:54 AM 60.8 °F - 60.8 °F 100% 29.88 in 4.0 mi SSE 6.9 mph - N/A Rain , Thunderstorm Light Thunderstorms and Rain
7:14 AM 62.6 °F - 60.8 °F 94% 29.88 in 4.0 mi SSE 5.8 mph - N/A Thunderstorm Clear
7:34 AM 62.6 °F - 62.6 °F 100% 29.87 in 5.0 mi SE 8.1 mph - N/A   Scattered Clouds
7:54 AM 64.4 °F - 62.6 °F 94% 29.88 in 5.0 mi SE 4.6 mph - N/A Rain , Thunderstorm Light Thunderstorms and Rain
8:14 AM 64.4 °F - 62.6 °F 94% 29.89 in 7.0 mi South 5.8 mph - N/A   Scattered Clouds
8:34 AM 64.4 °F - 62.6 °F 94% 29.88 in 7.0 mi SSE 9.2 mph - N/A   Scattered Clouds
8:54 AM 66.2 °F - 64.4 °F 94% 29.87 in 10.0 mi South 12.7 mph - N/A Thunderstorm Thunderstorm
9:14 AM 66.2 °F - 64.4 °F 94% 29.87 in 10.0 mi South 11.5 mph - N/A   Clear
9:34 AM 68.0 °F - 64.4 °F 88% 29.88 in 10.0 mi South 13.8 mph - N/A   Clear
9:54 AM 68.0 °F - 64.4 °F 88% 29.89 in 10.0 mi SSW 8.1 mph - N/A   Clear
10:14 AM 69.8 °F - 64.4 °F 83% 29.87 in 10.0 mi South 9.2 mph - N/A   Clear
10:34 AM 69.8 °F - 64.4 °F 83% 29.86 in 10.0 mi South 6.9 mph - N/A   Clear
10:54 AM 71.6 °F - 64.4 °F 78% 29.85 in 10.0 mi SSW 10.4 mph - N/A   Clear
11:14 AM 71.6 °F - 64.4 °F 78% 29.85 in 10.0 mi South 11.5 mph 16.1 mph N/A   Clear
11:34 AM 73.4 °F - 64.4 °F 73% 29.84 in 10.0 mi South 10.4 mph - N/A   Clear
11:54 AM 75.2 °F - 64.4 °F 69% 29.83 in 10.0 mi SSW 12.7 mph 19.6 mph N/A   Clear
12:14 PM 75.2 °F - 64.4 °F 69% 29.82 in 10.0 mi South 9.2 mph 19.6 mph N/A   Clear
12:34 PM 75.2 °F - 64.4 °F 69% 29.81 in 10.0 mi South 17.3 mph 23.0 mph N/A   Clear
12:54 PM 77.0 °F - 64.4 °F 65% 29.80 in 10.0 mi South 12.7 mph 20.7 mph N/A   Clear
1:14 PM 77.0 °F - 62.6 °F 61% 29.79 in 10.0 mi South 15.0 mph 20.7 mph N/A   Clear
1:34 PM 78.8 °F - 64.4 °F 61% 29.79 in 10.0 mi South 13.8 mph 20.7 mph N/A   Clear
2:14 PM 80.6 °F 81.8 °F 62.6 °F 54% 29.79 in 10.0 mi South 12.7 mph 17.3 mph N/A   Clear
2:34 PM 80.6 °F 81.8 °F 62.6 °F 54% 29.79 in 10.0 mi SSW 6.9 mph - N/A   Clear
2:54 PM 80.6 °F 82.3 °F 64.4 °F 58% 29.79 in 10.0 mi South 9.2 mph - N/A   Scattered Clouds
3:14 PM 80.6 °F 82.3 °F 64.4 °F 58% 29.79 in 10.0 mi Calm Calm - N/A   Mostly Cloudy
3:34 PM 80.6 °F 82.3 °F 64.4 °F 58% 29.79 in 10.0 mi SW 8.1 mph - N/A   Mostly Cloudy
3:54 PM 82.4 °F 83.9 °F 64.4 °F 54% 29.79 in 10.0 mi SW 11.5 mph 17.3 mph N/A   Scattered Clouds
4:14 PM 82.4 °F 84.6 °F 66.2 °F 58% 29.79 in 10.0 mi South 12.7 mph 18.4 mph N/A   Scattered Clouds
4:34 PM 80.6 °F 82.7 °F 66.2 °F 61% 29.79 in 10.0 mi South 10.4 mph - N/A   Scattered Clouds
5:14 PM 80.6 °F 82.3 °F 64.4 °F 58% 29.78 in 10.0 mi South 10.4 mph 17.3 mph N/A   Scattered Clouds
5:34 PM 80.6 °F 81.8 °F 62.6 °F 54% 29.78 in 10.0 mi South 13.8 mph 19.6 mph N/A   Mostly Cloudy
5:54 PM 80.6 °F 81.8 °F 62.6 °F 54% 29.78 in 10.0 mi South 10.4 mph 19.6 mph N/A Thunderstorm Mostly Cloudy
6:14 PM 78.8 °F - 62.6 °F 57% 29.76 in 10.0 mi South 16.1 mph 23.0 mph N/A Thunderstorm Mostly Cloudy
6:34 PM 80.6 °F 81.8 °F 62.6 °F 54% 29.76 in 10.0 mi South 11.5 mph 20.7 mph N/A Thunderstorm Mostly Cloudy
6:54 PM 80.6 °F 81.8 °F 62.6 °F 54% 29.76 in 10.0 mi South 15.0 mph 20.7 mph N/A   Scattered Clouds
7:14 PM 80.6 °F 81.5 °F 60.8 °F 51% 29.76 in 10.0 mi South 10.4 mph 19.6 mph N/A   Clear
7:34 PM 78.8 °F - 60.8 °F 54% 29.76 in 10.0 mi South 10.4 mph 19.6 mph N/A   Clear
7:54 PM 78.8 °F - 60.8 °F 54% 29.76 in 10.0 mi South 11.5 mph - N/A   Clear
8:14 PM 78.8 °F - 60.8 °F 54% 29.75 in 10.0 mi South 10.4 mph - N/A   Clear
8:34 PM 77.0 °F - 60.8 °F 57% 29.75 in 10.0 mi South 9.2 mph - N/A   Clear
8:54 PM 75.2 °F - 60.8 °F 61% 29.74 in 10.0 mi South 8.1 mph - N/A   Clear
9:14 PM 73.4 °F - 60.8 °F 65% 29.73 in 10.0 mi South 6.9 mph - N/A   Clear
9:34 PM 71.6 °F - 60.8 °F 69% 29.74 in 10.0 mi South 8.1 mph - N/A   Clear
9:54 PM 71.6 °F - 60.8 °F 69% 29.75 in 10.0 mi SSE 5.8 mph - N/A   Clear
10:14 PM 71.6 °F - 60.8 °F 69% 29.75 in 10.0 mi South 6.9 mph - N/A   Clear
10:34 PM 71.6 °F - 60.8 °F 69% 29.75 in 10.0 mi South 6.9 mph - N/A   Clear
11:14 PM 68.0 °F - 60.8 °F 78% 29.74 in 10.0 mi SSE 5.8 mph - N/A   Clear
11:33 PM 68.0 °F - 60.8 °F 78% 29.73 in 10.0 mi SSE 5.8 mph - N/A   Clear
11:54 PM 69.8 °F - 60.8 °F 73% 29.73 in 10.0 mi SSE 8.1 mph - N/A   Clear